Weather in Kipelovo

Russia / Vologda Oblast     59°14′11″N   39°08′28″E
temp.,
°C
wind,
m/s
gust,
m/s
humid.,
%
clouds,
%
prec.,
mm/h
press.,
hPa
HPBL,
m
18 october, mon
mon1800:00+3wsw412825 0.0 1005638
03:00+2sw411895 0.0 1005446
06:00+1sw311925 0.0 1004351
09:00+2sw410876 0.0 1004511
12:00+4wsw47695 0.0 1003944
15:00+4w477035 0.2 10031125
18:00+3w4771100 0.1 1004922
21:00+1sw2898100 0.2 1004494
19 october, tue
tue1900:00+1wnw4996100 0.3 1006644
03:00+1wnw4992100 0.4 1008601
06:00+1w3897100 0.1 1009417
09:00+1w3797100 0.3 1011373
12:00+3wnw4679100 0.1 1012802
15:00+3wnw3579100 0.4 1013771
18:00+1nnw2584100 0.1 1014243
21:000nw259018 0.1 1016120
20 october, wed
wed2000:00−2nnw23945 0.0 101781
03:00−2nw25925 0.0 1019118
06:00−2wnw249566 0.0 1019105
09:00−1w2487100 0.0 1019420
12:00+1sw3469100 0.1 10191056
15:00+2ssw3662100 0.1 10171130
18:00−1s397891 0.0 1015442
21:00−1s51280100 0.0 1011617
21 october, thu
thu2100:00−1s61690100 0.1 1007641
03:000s71795100 1.4 1001746
06:00+1s71795100 2.1 996801
09:00+4ssw81794100 3.1 992826
12:00+8sw81897100 0.1 9901061
15:00+10sw71788100 0.2 9891254
18:00+10sw7168998 0.2 990982
21:00+10sw71493100 0.2 989718
22 october, fri
fri2200:00+9ssw61496100 0.6 986700
03:00+10wsw81787100 4.7 9851414
06:00+9sw71582100 0.1 9851246
09:00+9sw81882100 0.8 9841622
12:00+9wsw91784100 0.6 9861581
15:00+8wsw71487100 1.1 9901314
18:00+7w81681100 0.4 9941330
21:00+6w61479100 0.4 9981268